Location: Grossmotten
(48.5500°N, 15.3833°E)
Time: 01:54:33
(UTC+00:00)

CZ-4B R/B - Pass Details

Date: 15 November 2019
Orbit: 809 x 881 km, 99.1° (Epoch: 15 December)

Event Time Altitude Azimuth Distance (km) Brightness Sun altitude
Rises 04:15:45 0° 19° (NNE) 3,359 6.5 -18.1°
Reaches altitude 10° 04:18:10 10° 24° (NNE) 2,430 5.8 -17.7°
Maximum altitude 04:23:24 51° 100° (E) 1,040 4.1 -16.9°
Drops below altitude 10° 04:28:41 10° 176° (S) 2,456 5.8 -16.0°
Sets 04:31:08 0° 182° (S) 3,398 6.5 -15.6°
